Weather History for Hurlburt Field, FL

Change the Weather History Date:

Tuesday, November 5, 2013

  Actual Average Record
Temperature  
Mean Temperature 66 °F -  
Max Temperature 76 °F 72 °F 82 °F (2003)
Min Temperature 56 °F 52 °F 39 °F (1999)
Cooling Degree Days 1    
Growing Degree Days 16 (Base 50)    
Moisture  
Dew Point 50 °F    
Average Humidity 56    
Maximum Humidity 65    
Minimum Humidity 45    
Precipitation  
Precipitation 0.00 in - - ()
Sea Level Pressure  
Sea Level Pressure 30.22 in    
Wind  
Wind Speed 12 mph (ENE)    
Max Wind Speed 17 mph    
Max Gust Speed 23 mph    
Visibility 10 miles    
Events      
Averages and records for this station are not official NWS values.
T = Trace of Precipitation, MM = Missing Value Source: NWS Daily Summary

Daily Weather History Graph

Daily Weather History Graph

Search for Another Location

Airport:

Trip Planner

Search our weather history database for the weather conditions in past years. The results will help you decide how hot, cold, wet, or windy it might be!

Date:

Astronomy

Nov. 05, 2013 Rise Set
Actual Time 6:04 AM CST 4:55 PM CST
Civil Twilight 5:39 AM CST 5:20 PM CST
Nautical Twilight 5:10 AM CST 5:49 PM CST
Astronomical Twilight 4:42 AM CST 6:17 PM CST
Moon 8:13 AM CST (11/5) 7:02 PM CST (11/5)
Length of Visible Light 11h 41m
Length of Day
10h 51m
Waxing Crescent, 7% of the Moon is Illuminated
Nov 5
Waxing Crescent
Nov 9
First Quarter
Nov 17
Full
Nov 25
Last Quarter
Dec 2
New

Hourly Weather History & Observations

Time (CST) Temp. Dew Point Humidity Pressure Visibility Wind Dir Wind Speed Gust Speed Precip Events Conditions
12:58 AM 61.2 °F 49.5 °F 65% 30.23 in 10.0 mi East 11.5 mph 21.9 mph N/A   Clear
1:58 AM 61.0 °F 47.8 °F 62% 30.23 in 10.0 mi ENE 17.3 mph - N/A   Overcast
2:58 AM 59.0 °F 45.9 °F 62% 30.23 in 10.0 mi ENE 12.7 mph 19.6 mph N/A   Clear
3:58 AM 57.4 °F 44.2 °F 62% 30.24 in 10.0 mi NE 10.4 mph - N/A   Clear
4:58 AM 56.7 °F 43.2 °F 61% 30.25 in 10.0 mi ENE 10.4 mph - N/A   Clear
5:58 AM 57.7 °F 43.7 °F 60% 30.25 in 10.0 mi East 11.5 mph - N/A   Overcast
6:58 AM 59.0 °F 44.6 °F 59% 30.28 in 10.0 mi East 8.1 mph - N/A   Scattered Clouds
7:58 AM 60.8 °F 46.6 °F 59% 30.29 in 10.0 mi East 15.0 mph 20.7 mph N/A   Clear
8:58 AM 64.6 °F 48.9 °F 57% 30.28 in 10.0 mi ENE 8.1 mph - N/A   Clear
9:58 AM 68.5 °F 51.3 °F 54% 30.27 in 10.0 mi ENE 12.7 mph - N/A   Clear
10:58 AM 72.9 °F 53.8 °F 51% 30.24 in 10.0 mi NE 10.4 mph - N/A   Clear
11:58 AM 75.2 °F 54.9 °F 49% 30.22 in 10.0 mi NE 9.2 mph - N/A   Clear
12:58 PM 76.3 °F 55.0 °F 48% 30.20 in 10.0 mi East 8.1 mph 16.1 mph N/A   Mostly Cloudy
1:58 PM 76.1 °F 54.0 °F 46% 30.19 in 10.0 mi NE 10.4 mph - N/A   Scattered Clouds
2:58 PM 76.3 °F 53.8 °F 45% 30.18 in 10.0 mi ENE 10.4 mph - N/A   Mostly Cloudy
3:58 PM 73.4 °F 54.0 °F 50% 30.18 in 10.0 mi NE 9.2 mph - N/A   Mostly Cloudy
4:58 PM 71.2 °F 52.7 °F 52% 30.18 in 10.0 mi ENE 10.4 mph - N/A   Overcast
5:58 PM 69.8 °F 53.2 °F 56% 30.19 in 10.0 mi ENE 10.4 mph - N/A   Overcast
6:58 PM 68.7 °F 52.2 °F 55% 30.19 in 10.0 mi ENE 16.1 mph - N/A   Overcast
7:58 PM 66.7 °F 50.4 °F 56% 30.20 in 10.0 mi East 13.8 mph 23.0 mph N/A   Clear
8:58 PM 65.5 °F 50.2 °F 58% 30.21 in 10.0 mi ENE 11.5 mph - N/A   Clear
9:58 PM 64.4 °F 49.5 °F 58% 30.20 in 10.0 mi ENE 11.5 mph - N/A   Clear
10:58 PM 63.7 °F 49.3 °F 59% 30.19 in 10.0 mi East 10.4 mph - N/A   Clear
11:58 PM 63.0 °F 49.8 °F 62% 30.17 in 10.0 mi East 9.2 mph - N/A   Clear